Location: Newark
(49.8969°N, 3.3422°E)
Time: 00:47:42
(UTC+00:00)

A-11 Canister half - Pass Details

Date: 31 January 2020
Orbit: 1517 x 1683 km, 47.2° (Epoch: 26 February)

Event Time Altitude Azimuth Distance (km) Brightness Sun altitude
Rises 20:02:41 0° 194° (SSW) 4,799 11.6 -32.8°
Reaches altitude 10° 20:06:36 10° 181° (S) 3,789 10.9 -33.4°
Enters shadow 20:07:29 12° 177° (S) 3,588 10.8 -33.6°
Maximum altitude 20:13:38 24° 133° (SE) 2,816 - -34.5°
Drops below altitude 10° 20:20:32 10° 85° (E) 3,714 - -35.6°
Sets 20:24:18 0° 72° (ENE) 4,683 - -36.2°
